FW2415 Munlochy UK current weather conditions

sailwx.info

Wind from 241 at 1 knots gusting 6

Air temperature 11.7° C
Dewpoint 9.1° C

Last reported at 2020-Jul-06 05:10 UTC.
Time now 2020-Jul-06 05:39 UTC

Location: N 57°33' W 004°16'.
View on Google Maps.

See reports from other nearby stations

  
Tides and Currents Weather Stations Pressure Air Temp Water Temp Dewpoint Dewpoint Depression Visibility Wind Speed Wind Dir Waves Ship Positions
date/time (UTC)wind fromknots sea level pressurealtimeterstation pressurevisibilityair tempwater tempwave heightnotes
2020-Jul-06 05:10 241 1 gusting 6 11.7
2020-Jul-06 05:05 235 1 gusting 5 11.7
2020-Jul-06 05:00 237 0 gusting 5 11.1
2020-Jul-06 04:55 281 0 gusting 4 11.1
2020-Jul-06 04:50 253 1 gusting 4 11.1
2020-Jul-06 04:45 233 1 gusting 4 11.1
2020-Jul-06 04:40 273 1 gusting 4 10.6
2020-Jul-06 04:35 292 1 gusting 5 10.6
2020-Jul-06 04:30 245 1 gusting 5 10.6
2020-Jul-06 04:25 287 1 gusting 5 10.6
2020-Jul-06 04:20 254 1 gusting 5 10.6
2020-Jul-06 04:15 237 1 gusting 5 10.6
2020-Jul-06 04:10 245 1 gusting 5 10.6
2020-Jul-06 04:05 244 1 gusting 6 10.6
2020-Jul-06 04:00 249 1 gusting 6 10.6
2020-Jul-06 03:55 245 1 gusting 5 10.6
2020-Jul-06 03:50 238 1 gusting 5 11.1
2020-Jul-06 03:45 241 1 gusting 5 11.1
2020-Jul-06 03:40 240 0 gusting 5 11.1
2020-Jul-06 03:35 242 0 gusting 4 11.1
2020-Jul-06 03:30 225 1 gusting 4 11.1
2020-Jul-06 03:25 232 1 gusting 4 11.1
2020-Jul-06 03:20 245 1 gusting 4 11.1
2020-Jul-06 03:15 233 1 gusting 4 11.1
2020-Jul-06 03:10 252 1 gusting 4 11.1
2020-Jul-06 03:05 227 1 gusting 4 11.1
2020-Jul-06 03:00 256 1 gusting 4 11.1
2020-Jul-06 02:55 244 1 gusting 5 11.1
2020-Jul-06 02:50 255 1 gusting 5 11.1
2020-Jul-06 02:45 261 1 gusting 6 11.1
2020-Jul-06 02:40 252 1 gusting 6 11.1
2020-Jul-06 02:35 259 1 gusting 6 11.1
2020-Jul-06 02:30 258 1 gusting 5 11.1
2020-Jul-06 02:25 252 1 gusting 6 11.1
2020-Jul-06 02:20 269 2 gusting 6 11.1
2020-Jul-06 02:15 282 2 gusting 6 11.1
2020-Jul-06 02:10 291 2 gusting 6 11.1
2020-Jul-06 02:05 264 2 gusting 6 11.1
2020-Jul-06 02:00 272 1 gusting 6 11.1
2020-Jul-06 01:55 263 1 gusting 6 11.1
2020-Jul-06 01:50 274 1 gusting 5 11.1
2020-Jul-06 01:45 273 1 gusting 6 11.1
2020-Jul-06 01:40 283 1 gusting 6 11.1
2020-Jul-06 01:35 242 1 gusting 5 11.1
2020-Jul-06 01:30 253 2 gusting 8 11.1
2020-Jul-06 01:25 265 2 gusting 8 11.1
2020-Jul-06 01:20 261 2 gusting 8 11.1
2020-Jul-06 01:15 250 2 gusting 7 11.1
2020-Jul-06 01:10 266 2 gusting 6 11.1
2020-Jul-06 01:05 245 2 gusting 8 11.1
2020-Jul-06 01:00 261 2 gusting 8 11.1
2020-Jul-06 00:55 256 2 gusting 4 11.1
2020-Jul-06 00:50 256 2 gusting 10 11.1
2020-Jul-06 00:45 256 2 gusting 10 11.1
2020-Jul-06 00:40 251 2 gusting 5 11.1
2020-Jul-06 00:35 254 2 gusting 6 11.1
2020-Jul-06 00:30 234 2 gusting 6 11.1
2020-Jul-06 00:25 250 2 gusting 6 11.1
2020-Jul-06 00:20 259 4 gusting 6 11.1
2020-Jul-06 00:15 256 4 gusting 7 11.1
2020-Jul-06 00:10 259 2 gusting 7 11.1
2020-Jul-06 00:05 258 2 gusting 6 11.1
2020-Jul-06 00:00 257 4 gusting 6 11.1
2020-Jul-05 23:55 250 4 gusting 8 11.1
2020-Jul-05 23:50 247 4 gusting 8 11.1
2020-Jul-05 23:45 249 4 gusting 7 11.1
2020-Jul-05 23:40 262 4 gusting 7 11.1
2020-Jul-05 23:35 253 4 gusting 8 11.1
2020-Jul-05 23:30 260 2 gusting 8 11.1
2020-Jul-05 23:25 260 2 gusting 6 11.1
2020-Jul-05 23:20 259 2 gusting 6 10.6
2020-Jul-05 23:15 261 2 gusting 8 10.6
2020-Jul-05 23:10 254 2 gusting 8 10.6
2020-Jul-05 23:05 256 2 gusting 8 10.6
2020-Jul-05 23:00 247 4 gusting 6 10.6
2020-Jul-05 22:55 251 4 gusting 6 10.6
2020-Jul-05 22:50 250 1 gusting 6 10.6
2020-Jul-05 22:45 276 1 gusting 6 10.6
2020-Jul-05 22:40 246 1 gusting 6 10.6
2020-Jul-05 22:35 264 1 gusting 6 10.6
2020-Jul-05 22:30 275 1 gusting 6 10.6
2020-Jul-05 22:25 261 1 gusting 6 10.6
2020-Jul-05 22:20 225 1 gusting 6 10.6
2020-Jul-05 22:15 246 1 gusting 6 10.6
2020-Jul-05 22:10 272 1 gusting 6 11.1
2020-Jul-05 22:05 249 1 gusting 5 11.1
2020-Jul-05 22:00 231 1 gusting 5 11.1
2020-Jul-05 21:55 276 1 gusting 6 11.1
2020-Jul-05 21:50 234 1 gusting 6 11.1
2020-Jul-05 21:45 247 1 gusting 6 11.1
2020-Jul-05 21:40 246 1 gusting 5 11.1
2020-Jul-05 21:35 236 1 gusting 6 11.1
2020-Jul-05 21:30 255 1 gusting 6 11.1
2020-Jul-05 21:25 252 1 gusting 5 11.1
2020-Jul-05 21:20 326 1 gusting 6 11.7
2020-Jul-05 21:15 245 1 gusting 6 11.7
2020-Jul-05 21:10 247 1 gusting 6 11.7
2020-Jul-05 21:05 279 1 gusting 6 11.7
2020-Jul-05 21:00 268 2 gusting 6 11.7
2020-Jul-05 20:55 241 2 gusting 6 11.7
2020-Jul-05 20:50 265 2 gusting 6 11.7
2020-Jul-05 20:45 255 2 gusting 6 11.7
2020-Jul-05 20:40 246 1 gusting 6 11.7
2020-Jul-05 20:35 244 1 gusting 6 11.7
2020-Jul-05 20:30 271 2 gusting 6 11.7
2020-Jul-05 20:25 249 2 gusting 5 11.7
2020-Jul-05 20:20 258 4 gusting 6 11.7
2020-Jul-05 20:15 245 4 gusting 6 11.7
2020-Jul-05 20:10 241 4 gusting 7 11.7
2020-Jul-05 20:05 261 4 gusting 7 12.2
2020-Jul-05 20:00 262 2 gusting 7 12.2
2020-Jul-05 19:55 246 2 gusting 6 12.2
2020-Jul-05 19:50 262 1 gusting 6 12.2
2020-Jul-05 19:45 249 1 gusting 6 12.2
2020-Jul-05 19:40 263 2 gusting 5 12.2
2020-Jul-05 19:35 277 2 gusting 6 12.2
2020-Jul-05 19:30 257 4 gusting 6 12.2
2020-Jul-05 19:25 280 4 gusting 7 12.2
2020-Jul-05 19:20 243 2 gusting 8 12.2
2020-Jul-05 19:15 245 2 gusting 8 12.8
2020-Jul-05 19:10 239 2 gusting 6 12.8
2020-Jul-05 19:05 246 2 gusting 6 12.2
2020-Jul-05 19:00 259 1 gusting 6 12.2
2020-Jul-05 18:55 246 1 gusting 6 12.2
2020-Jul-05 18:50 268 1 gusting 5 12.2
2020-Jul-05 18:45 245 1 gusting 4 12.2
2020-Jul-05 18:40 252 1 gusting 6 12.2
2020-Jul-05 18:35 262 1 gusting 6 11.7
2020-Jul-05 18:30 263 4 gusting 8 11.7
2020-Jul-05 18:25 277 4 gusting 8 11.7
2020-Jul-05 18:20 268 5 gusting 11 11.7
2020-Jul-05 18:15 271 5 gusting 12 12.2
2020-Jul-05 18:10 267 5 gusting 14 12.2
2020-Jul-05 18:05 270 5 gusting 14 12.8
2020-Jul-05 18:00 301 5 gusting 14 13.3
2020-Jul-05 17:55 282 5 gusting 14 13.3
2020-Jul-05 17:50 264 5 gusting 13 13.3
2020-Jul-05 17:45 273 5 gusting 13 13.3
2020-Jul-05 17:40 262 5 gusting 13 13.3
2020-Jul-05 17:35 277 5 gusting 13 13.9
2020-Jul-05 17:30 261 6 gusting 12 13.9
2020-Jul-05 17:25 238 6 gusting 13 14.4
2020-Jul-05 17:20 267 6 gusting 13 15.0
2020-Jul-05 17:15 265 6 gusting 19 15.0
2020-Jul-05 17:10 264 5 gusting 19 15.0
2020-Jul-05 17:05 251 5 gusting 13 15.0
2020-Jul-05 17:00 268 4 gusting 13 14.4
2020-Jul-05 16:55 241 4 gusting 10 14.4
2020-Jul-05 16:50 251 4 gusting 10 14.4
2020-Jul-05 16:45 246 4 gusting 10 15.0
2020-Jul-05 16:40 265 4 gusting 13 15.0
2020-Jul-05 16:35 277 4 gusting 13 15.0
2020-Jul-05 16:30 258 4 gusting 13 15.0
2020-Jul-05 16:25 258 4 gusting 7 13.9
2020-Jul-05 16:20 245 4 gusting 7 13.3
2020-Jul-05 16:15 265 4 gusting 6 12.8
2020-Jul-05 16:10 242 4 gusting 6 12.8
2020-Jul-05 16:05 242 4 gusting 7 12.8
2020-Jul-05 16:00 253 5 gusting 13 12.8
2020-Jul-05 15:55 248 5 gusting 13 12.8
2020-Jul-05 15:50 267 6 gusting 13 13.3
2020-Jul-05 15:45 263 6 gusting 13 13.9
2020-Jul-05 15:40 265 5 gusting 13 14.4
2020-Jul-05 15:35 259 5 gusting 12 15.6
2020-Jul-05 15:30 242 5 gusting 12 16.1
2020-Jul-05 15:25 243 5 gusting 12 16.7
2020-Jul-05 15:20 244 4 gusting 12 16.7
2020-Jul-05 15:15 248 4 gusting 11 16.1
2020-Jul-05 15:10 243 2 gusting 6 15.6
2020-Jul-05 15:05 237 2 gusting 6 15.0
2020-Jul-05 14:55 281 4 gusting 11 13.9
2020-Jul-05 14:50 300 5 gusting 12 13.9
2020-Jul-05 14:45 274 5 gusting 12 14.4
2020-Jul-05 14:40 263 4 gusting 11 14.4
2020-Jul-05 14:35 266 4 gusting 11 14.4
2020-Jul-05 14:30 252 5 gusting 11 13.9
2020-Jul-05 14:25 276 5 gusting 11 13.3
2020-Jul-05 14:20 255 5 gusting 11 13.9
2020-Jul-05 14:15 285 5 gusting 11 15.0
2020-Jul-05 14:10 269 4 gusting 11 15.0
2020-Jul-05 14:05 253 4 gusting 10 15.0
2020-Jul-05 14:00 243 4 gusting 8 14.4
2020-Jul-05 13:55 242 4 gusting 8 13.9
2020-Jul-05 13:50 240 5 gusting 12 13.3
2020-Jul-05 13:45 260 5 gusting 12 13.3
2020-Jul-05 13:40 266 4 gusting 12 13.3
2020-Jul-05 13:35 272 4 gusting 11 13.9
2020-Jul-05 13:30 248 2 gusting 11 13.3
2020-Jul-05 13:25 257 2 gusting 11 13.3
2020-Jul-05 13:20 257 5 gusting 8 13.3
2020-Jul-05 13:15 288 5 gusting 11 13.3
2020-Jul-05 13:10 291 4 gusting 11 13.3
2020-Jul-05 13:05 297 4 gusting 11 13.9
2020-Jul-05 13:00 268 4 gusting 8 13.9
2020-Jul-05 12:55 253 4 gusting 8 13.9
2020-Jul-05 12:50 264 4 gusting 8 13.3
2020-Jul-05 12:45 237 4 gusting 8 12.8
2020-Jul-05 12:40 252 6 gusting 11 12.8
2020-Jul-05 12:35 263 6 gusting 13 12.8
2020-Jul-05 12:30 245 6 gusting 13 12.8
2020-Jul-05 12:25 257 6 gusting 14 13.3
2020-Jul-05 12:20 265 2 gusting 15 13.3
2020-Jul-05 12:10 273 4 gusting 6 14.4
2020-Jul-05 12:05 248 4 gusting 8 14.4
2020-Jul-05 12:00 261 4 gusting 10 13.9
2020-Jul-05 11:55 277 4 gusting 10 13.9
2020-Jul-05 11:50 262 4 gusting 8 14.4
2020-Jul-05 11:45 266 4 gusting 11 15.0
2020-Jul-05 11:40 268 6 gusting 13 15.0
2020-Jul-05 11:35 267 6 gusting 13 15.0
2020-Jul-05 11:30 261 6 gusting 13 14.4
2020-Jul-05 11:25 258 6 gusting 12 13.9
2020-Jul-05 11:20 254 5 gusting 13 13.3
2020-Jul-05 11:15 280 5 gusting 13 12.8
2020-Jul-05 11:10 261 5 gusting 13 13.3
2020-Jul-05 11:05 256 5 gusting 12 12.8
2020-Jul-05 11:00 287 5 gusting 12 12.8
2020-Jul-05 10:55 268 5 gusting 12 12.8
2020-Jul-05 10:50 263 6 gusting 19 13.3
2020-Jul-05 10:45 269 6 gusting 19 13.3
2020-Jul-05 10:40 273 6 gusting 15 13.9
2020-Jul-05 10:35 248 6 gusting 15 14.4
2020-Jul-05 10:30 265 6 gusting 13 13.9
2020-Jul-05 10:25 248 6 gusting 15 13.9
2020-Jul-05 10:20 262 6 gusting 15 13.3
2020-Jul-05 10:15 247 6 gusting 17 13.9
2020-Jul-05 10:10 267 6 gusting 17 13.9
2020-Jul-05 10:05 267 6 gusting 14 13.9
2020-Jul-05 10:00 276 4 gusting 14 13.9
2020-Jul-05 09:55 269 4 gusting 12 13.3
2020-Jul-05 09:50 269 4 gusting 12 13.3
2020-Jul-05 09:45 257 4 gusting 7 13.3
2020-Jul-05 09:40 258 4 gusting 8 13.3
2020-Jul-05 09:35 263 4 gusting 8 13.3
2020-Jul-05 09:30 242 4 gusting 8 13.3
2020-Jul-05 09:25 258 4 gusting 10 12.8
2020-Jul-05 09:20 246 4 gusting 10 12.8
2020-Jul-05 09:15 247 4 gusting 8 12.8
2020-Jul-05 09:10 250 4 gusting 7 12.8
2020-Jul-05 09:05 270 4 gusting 7 12.8
2020-Jul-05 09:00 247 4 gusting 7 12.8
2020-Jul-05 08:55 253 4 gusting 6 12.8
2020-Jul-05 08:50 251 2 gusting 7 12.8
2020-Jul-05 08:45 275 2 gusting 7 12.8
2020-Jul-05 08:40 259 1 gusting 6 12.2
2020-Jul-05 08:35 250 1 gusting 6 12.2
2020-Jul-05 08:30 254 4 gusting 6 12.2
2020-Jul-05 08:25 258 4 gusting 7 12.2
2020-Jul-05 08:20 247 2 gusting 7 12.2
2020-Jul-05 08:15 245 2 gusting 7 12.2
2020-Jul-05 08:10 276 4 gusting 6 12.2
2020-Jul-05 08:05 254 4 gusting 7 12.2
2020-Jul-05 08:00 250 4 gusting 11 12.2
2020-Jul-05 07:55 258 4 gusting 11 12.2
2020-Jul-05 07:50 262 4 gusting 10 12.2
2020-Jul-05 07:45 262 4 gusting 10 12.2
2020-Jul-05 07:40 257 1 gusting 6 12.2
2020-Jul-05 07:35 248 1 gusting 6 12.2
2020-Jul-05 07:30 245 1 gusting 5 11.7
2020-Jul-05 07:25 279 1 gusting 4 11.7
2020-Jul-05 07:20 236 1 gusting 6 11.7
2020-Jul-05 07:15 272 1 gusting 6 11.7
2020-Jul-05 07:10 246 2 gusting 5 11.7
2020-Jul-05 07:05 234 2 gusting 6 11.7
2020-Jul-05 07:00 279 2 gusting 7 11.7
2020-Jul-05 06:55 272 2 gusting 7 11.7
2020-Jul-05 06:50 246 2 gusting 10 11.1
2020-Jul-05 06:45 235 2 gusting 10 11.1
2020-Jul-05 06:40 260 2 gusting 10 11.1
2020-Jul-05 06:35 280 2 gusting 6 11.1
2020-Jul-05 06:25 281 4 gusting 8 11.1
2020-Jul-05 06:20 271 4 gusting 6 11.1
2020-Jul-05 06:15 267 4 gusting 7 10.6
2020-Jul-05 06:10 251 4 gusting 7 10.6
2020-Jul-05 06:05 276 4 gusting 7 10.6
2020-Jul-05 06:00 248 4 gusting 6 10.6
2020-Jul-05 05:55 255 4 gusting 8 10.6
2020-Jul-05 05:50 261 2 gusting 8 10.6
2020-Jul-05 05:45 260 2 gusting 7 10.6
2020-Jul-05 05:40 273 1 gusting 7 10.6
2020-Jul-05 05:35 266 1 gusting 5 10.6
2020-Jul-05 05:30 224 1 gusting 6 10.6
2020-Jul-05 05:25 255 1 gusting 6 10.6
2020-Jul-05 05:20 263 0 gusting 5 10.6
2020-Jul-05 05:15 215 0 gusting 1 10.6
2020-Jul-05 05:10 245 1 gusting 4 10.0
2020-Jul-05 05:05 209 1 gusting 5 10.0
2020-Jul-05 05:00 283 1 gusting 5 10.0
2020-Jul-05 04:55 253 1 gusting 4 10.0
2020-Jul-05 04:50 254 1 gusting 4 10.0
2020-Jul-05 04:45 257 1 gusting 5 10.0
2020-Jul-05 04:40 260 1 gusting 6 10.0
2020-Jul-05 04:35 274 1 gusting 6 10.0
2020-Jul-05 04:30 265 1 gusting 4 10.0
2020-Jul-05 04:25 241 1 gusting 4 10.0
2020-Jul-05 04:20 242 1 gusting 5 10.0
2020-Jul-05 04:15 247 1 gusting 5 10.0
2020-Jul-05 04:10 237 1 gusting 5 10.0
2020-Jul-05 04:05 255 1 gusting 4 10.0
2020-Jul-05 04:00 232 1 gusting 4 10.0
2020-Jul-05 03:55 240 1 gusting 6 10.0
2020-Jul-05 03:50 270 1 gusting 8 10.0
2020-Jul-05 03:45 268 1 gusting 8 10.0
2020-Jul-05 03:40 265 10.6
2020-Jul-05 03:35 282 10.6
2020-Jul-05 03:30 241 0 gusting 2 10.6
2020-Jul-05 03:25 292 0 gusting 2 10.6
2020-Jul-05 03:20 262 1 gusting 2 10.6
2020-Jul-05 03:15 226 1 gusting 2 10.6
2020-Jul-05 03:10 244 0 gusting 4 10.6
2020-Jul-05 03:05 240 0 gusting 4 10.6
2020-Jul-05 03:00 269 10.6
2020-Jul-05 02:55 296 10.6
2020-Jul-05 02:50 227 1 gusting 1 10.6
2020-Jul-05 02:45 226 1 gusting 4 10.6
2020-Jul-05 02:40 225 0 gusting 4 10.6
2020-Jul-05 02:35 225 0 gusting 2 10.6
2020-Jul-05 02:30 226 10.6
2020-Jul-05 02:25 236 10.6
2020-Jul-05 02:20 313 10.6
2020-Jul-05 02:15 327 10.6
2020-Jul-05 02:10 014 1 gusting 4 10.6
2020-Jul-05 02:05 337 1 gusting 4 10.6
2020-Jul-05 02:00 337 1 gusting 4 10.6
2020-Jul-05 01:55 035 1 gusting 5 10.6
2020-Jul-05 01:50 019 11.1
2020-Jul-05 01:45 298 11.1
2020-Jul-05 01:40 328 1 gusting 4 11.1
2020-Jul-05 01:35 025 1 gusting 6 11.1
2020-Jul-05 01:30 021 1 gusting 6 11.1
2020-Jul-05 01:25 034 1 gusting 5 11.1
2020-Jul-05 01:20 048 1 gusting 5 11.1
2020-Jul-05 01:10 052 1 gusting 4 11.1
2020-Jul-05 01:05 017 1 gusting 4 11.1
2020-Jul-05 01:00 046 2 gusting 6 11.1
2020-Jul-05 00:55 059 2 gusting 6 11.1
2020-Jul-05 00:50 054 0 gusting 6 11.1
2020-Jul-05 00:45 040 0 gusting 4 11.1
2020-Jul-05 00:40 067 1 gusting 4 11.1
2020-Jul-05 00:35 024 1 gusting 4 11.1
2020-Jul-05 00:30 051 1 gusting 4 11.1
2020-Jul-05 00:25 045 1 gusting 4 11.1
2020-Jul-05 00:20 049 1 gusting 4 11.1
2020-Jul-05 00:15 043 1 gusting 4 11.1
2020-Jul-05 00:10 047 1 gusting 4 11.1
2020-Jul-05 00:05 045 1 gusting 4 11.1
2020-Jul-05 00:00 043 1 gusting 4 11.1
2020-Jul-04 23:50 040 0 gusting 4 11.1
2020-Jul-04 23:45 051 0 gusting 4 11.1
2020-Jul-04 23:40 053 0 gusting 4 11.1
2020-Jul-04 23:35 095 0 gusting 4 11.1
2020-Jul-04 23:30 123 0 gusting 2 11.1
2020-Jul-04 23:25 076 0 gusting 4 11.1
2020-Jul-04 23:20 090 1 gusting 4 11.1
2020-Jul-04 23:15 076 1 gusting 4 11.1
2020-Jul-04 23:10 078 1 gusting 4 11.1
2020-Jul-04 23:05 063 1 gusting 4 11.1
2020-Jul-04 22:55 076 1 gusting 4 11.1
2020-Jul-04 22:50 048 1 gusting 4 11.1
2020-Jul-04 22:45 071 1 gusting 4 11.1
2020-Jul-04 22:40 070 1 gusting 4 11.1
2020-Jul-04 22:35 057 1 gusting 4 11.1
2020-Jul-04 22:30 046 1 gusting 2 11.1
2020-Jul-04 22:25 063 1 gusting 4 11.1
2020-Jul-04 22:20 075 1 gusting 4 11.1
2020-Jul-04 22:15 068 1 gusting 4 11.1
2020-Jul-04 22:10 092 1 gusting 2 11.1
2020-Jul-04 22:05 103 1 gusting 4 11.7
2020-Jul-04 21:55 072 1 gusting 4 11.7
2020-Jul-04 21:50 068 1 gusting 2 11.7
2020-Jul-04 21:45 059 1 gusting 4 11.7
2020-Jul-04 21:40 117 1 gusting 4 11.7
2020-Jul-04 21:35 122 1 gusting 4 11.7
2020-Jul-04 21:30 122 0 gusting 4 11.7
2020-Jul-04 21:25 110 0 gusting 2 11.7
2020-Jul-04 21:20 093 11.7
2020-Jul-04 21:15 319 12.2
2020-Jul-04 21:10 319 12.2
2020-Jul-04 21:05 319 12.2
2020-Jul-04 21:00 319 1 gusting 1 12.2
2020-Jul-04 20:55 319 1 gusting 2 12.2
2020-Jul-04 20:50 309 0 gusting 2 12.2
2020-Jul-04 20:45 302 0 gusting 2 12.2
2020-Jul-04 20:40 317 12.8
2020-Jul-04 20:35 321 12.8
2020-Jul-04 20:30 323 12.8
2020-Jul-04 20:25 323 12.8
2020-Jul-04 20:20 323 12.8
2020-Jul-04 20:10 325 13.3
2020-Jul-04 20:05 325 13.3
2020-Jul-04 20:00 068 13.3
2020-Jul-04 19:55 068 13.3
2020-Jul-04 19:50 068 13.3
2020-Jul-04 19:45 070 13.3
2020-Jul-04 19:40 071 13.9
2020-Jul-04 19:35 105 13.9
2020-Jul-04 19:30 105 13.9
2020-Jul-04 19:25 105 13.9
2020-Jul-04 19:20 173 14.4
2020-Jul-04 19:15 174 14.4
2020-Jul-04 19:10 174 14.4
2020-Jul-04 19:05 172 14.4
2020-Jul-04 19:00 221 14.4
2020-Jul-04 18:55 251 14.4
2020-Jul-04 18:50 251 1 gusting 2 14.4
2020-Jul-04 18:45 227 1 gusting 4 14.4
2020-Jul-04 18:40 232 0 gusting 4 14.4
2020-Jul-04 18:35 293 0 gusting 4 14.4
2020-Jul-04 18:30 287 1 gusting 4 15.0
2020-Jul-04 18:25 256 1 gusting 4 15.0
2020-Jul-04 18:20 275 1 gusting 4 15.0
2020-Jul-04 18:15 275 1 gusting 4 15.6
2020-Jul-04 18:10 180 1 gusting 4 15.6
2020-Jul-04 18:05 191 1 gusting 4 16.1
2020-Jul-04 18:00 114 1 gusting 2 16.1
2020-Jul-04 17:55 169 1 gusting 5 16.7
2020-Jul-04 17:50 279 1 gusting 5 16.7
2020-Jul-04 17:45 276 1 gusting 6 17.2
2020-Jul-04 17:40 262 1 gusting 6 17.2
2020-Jul-04 17:35 276 1 gusting 6 17.2
2020-Jul-04 17:30 223 1 gusting 5 17.2
2020-Jul-04 17:25 248 1 gusting 6 16.7
2020-Jul-04 17:20 235 2 gusting 6 16.7
2020-Jul-04 17:15 244 2 gusting 6 17.2
2020-Jul-04 17:10 233 1 gusting 6 17.2
2020-Jul-04 17:05 256 1 gusting 6 16.7
2020-Jul-04 16:55 249 1 gusting 5 16.1
2020-Jul-04 16:50 205 1 gusting 6 15.6
2020-Jul-04 16:45 182 1 gusting 6 15.6
2020-Jul-04 16:40 215 1 gusting 6 15.6
2020-Jul-04 16:35 235 1 gusting 6 15.6
2020-Jul-04 16:30 234 1 gusting 5 15.6
2020-Jul-04 16:25 266 1 gusting 4 15.6
2020-Jul-04 16:20 244 1 gusting 5 15.0
2020-Jul-04 16:15 229 1 gusting 5 15.0
2020-Jul-04 16:10 257 1 gusting 4 15.0
2020-Jul-04 16:05 245 1 gusting 5 15.0
2020-Jul-04 16:00 228 1 gusting 6 15.0
2020-Jul-04 15:55 241 1 gusting 6 15.0
2020-Jul-04 15:50 211 1 gusting 6 15.0
2020-Jul-04 15:45 238 1 gusting 4 15.0
2020-Jul-04 15:40 315 1 gusting 4 14.4
2020-Jul-04 15:35 227 1 gusting 5 14.4
2020-Jul-04 15:30 240 2 gusting 6 14.4
2020-Jul-04 15:20 272 4 gusting 7 14.4
2020-Jul-04 15:15 262 4 gusting 7 13.9
2020-Jul-04 15:10 255 4 gusting 7 13.9
2020-Jul-04 15:05 278 4 gusting 7 13.9
2020-Jul-04 15:00 274 4 gusting 8 13.3
2020-Jul-04 14:55 278 4 gusting 8 13.3
2020-Jul-04 14:50 275 5 gusting 8 13.3
2020-Jul-04 14:45 283 5 gusting 10 13.3
2020-Jul-04 14:40 288 5 gusting 12 13.3
2020-Jul-04 14:35 268 5 gusting 13 13.3
2020-Jul-04 14:30 279 5 gusting 13 13.3
2020-Jul-04 14:25 272 5 gusting 11 13.3
2020-Jul-04 14:20 278 6 gusting 13 13.3
2020-Jul-04 14:15 290 6 gusting 13 13.9
2020-Jul-04 14:10 295 2 gusting 13 14.4
2020-Jul-04 14:05 280 2 gusting 8 15.6
2020-Jul-04 13:55 248 2 gusting 6 15.6
2020-Jul-04 13:50 236 2 gusting 6 15.6
2020-Jul-04 13:45 237 2 gusting 5 15.6
2020-Jul-04 13:40 268 1 gusting 5 15.6
2020-Jul-04 13:35 254 1 gusting 6 15.6
2020-Jul-04 13:25 267 2 gusting 6 15.6
2020-Jul-04 13:20 252 1 gusting 6 15.0
2020-Jul-04 13:10 286 1 gusting 6 15.0
2020-Jul-04 13:05 265 1 gusting 6 15.0
2020-Jul-04 12:55 249 2 gusting 6 15.6
2020-Jul-04 12:50 246 2 gusting 6 15.6
2020-Jul-04 12:45 215 2 gusting 6 15.6
2020-Jul-04 12:40 235 2 gusting 6 15.6
2020-Jul-04 12:35 250 2 gusting 6 15.6
2020-Jul-04 12:30 245 2 gusting 6 15.6
2020-Jul-04 12:25 242 2 gusting 5 15.6
2020-Jul-04 12:20 270 2 gusting 6 15.6
2020-Jul-04 12:15 247 2 gusting 6 15.0
2020-Jul-04 12:10 230 2 gusting 7 15.0
2020-Jul-04 12:05 232 2 gusting 7 15.0
2020-Jul-04 12:00 281 2 gusting 6 15.0
2020-Jul-04 11:55 229 2 gusting 6 14.4
2020-Jul-04 11:50 272 1 gusting 6 14.4
2020-Jul-04 11:45 240 1 gusting 6 14.4
2020-Jul-04 11:40 275 1 gusting 6 13.9
2020-Jul-04 11:35 234 1 gusting 6 13.9
2020-Jul-04 11:30 206 1 gusting 5 13.9
2020-Jul-04 11:25 216 1 gusting 5 13.9
2020-Jul-04 11:20 250 1 gusting 5 13.9
2020-Jul-04 11:15 201 1 gusting 2 13.3
2020-Jul-04 11:06 332 1 gusting 4 13.3
2020-Jul-04 11:00 138 1 gusting 4 13.3
2020-Jul-04 10:55 275 1 gusting 2 13.3
2020-Jul-04 10:50 209 1 gusting 4 12.8
2020-Jul-04 10:45 247 1 gusting 4 12.8
2020-Jul-04 10:40 235 1 gusting 4 12.8
2020-Jul-04 10:35 274 1 gusting 4 12.8
2020-Jul-04 10:30 226 0 gusting 4 12.8
2020-Jul-04 10:25 264 0 gusting 4 12.8
2020-Jul-04 10:20 285 1 gusting 4 12.8
2020-Jul-04 10:15 251 1 gusting 5 12.8
2020-Jul-04 10:10 230 1 gusting 5 12.8
2020-Jul-04 10:05 246 1 gusting 5 12.8
2020-Jul-04 09:55 288 1 gusting 5 12.8
2020-Jul-04 09:50 249 1 gusting 5 12.8
2020-Jul-04 09:45 230 1 gusting 4 12.8
2020-Jul-04 09:40 259 0 gusting 4 12.8
2020-Jul-04 09:35 243 0 gusting 4 12.8
2020-Jul-04 09:30 244 12.8
2020-Jul-04 09:25 290 12.2
2020-Jul-04 09:20 290 12.2
2020-Jul-04 09:15 290 12.2
2020-Jul-04 09:10 290 0 gusting 2 12.2
2020-Jul-04 09:05 257 0 gusting 2 12.2
2020-Jul-04 09:00 210 0 gusting 2 12.2
2020-Jul-04 08:55 240 0 gusting 2 12.2
2020-Jul-04 08:50 282 1 gusting 5 12.2
2020-Jul-04 08:45 294 1 gusting 6 12.2
2020-Jul-04 08:40 264 1 gusting 6 12.2
2020-Jul-04 08:35 284 1 gusting 5 12.8
2020-Jul-04 08:30 238 0 gusting 5 12.8
2020-Jul-04 08:25 278 0 gusting 4 12.8
2020-Jul-04 08:20 291 12.8
2020-Jul-04 08:15 236 12.8
2020-Jul-04 08:10 273 12.8
2020-Jul-04 08:05 286 12.8
2020-Jul-04 08:00 271 0 gusting 1 12.8
2020-Jul-04 07:55 309 0 gusting 2 12.8
2020-Jul-04 07:50 305 1 gusting 2 12.8
2020-Jul-04 07:45 315 1 gusting 4 12.2
2020-Jul-04 07:40 319 12.2
2020-Jul-04 07:35 301 12.2
2020-Jul-04 07:30 297 12.2
2020-Jul-04 07:25 335 12.2
2020-Jul-04 07:20 335 12.2
2020-Jul-04 07:15 335 12.2
2020-Jul-04 07:10 335 11.7
2020-Jul-04 07:05 073 11.7
2020-Jul-04 07:00 073 11.7
2020-Jul-04 06:55 073 11.7
2020-Jul-04 06:45 073 1 gusting 4 11.7
2020-Jul-04 06:40 087 1 gusting 4 11.1
2020-Jul-04 06:35 101 1 gusting 2 11.1
2020-Jul-04 06:30 083 1 gusting 2 11.1
2020-Jul-04 06:21 134 11.1
2020-Jul-04 06:15 122 11.1
2020-Jul-04 06:10 313 11.1
2020-Jul-04 06:05 313 11.1
2020-Jul-04 06:00 313 0 gusting 0 11.1
2020-Jul-04 05:55 313 0 gusting 2 10.6
2020-Jul-04 05:50 313 10.6
2020-Jul-04 05:45 332 10.6
2020-Jul-04 05:40 051 0 gusting 1 10.6
2020-Jul-04 05:35 046 0 gusting 1 10.6
2020-Jul-04 05:25 108 0 gusting 4 10.6
2020-Jul-04 05:20 077 10.6
2020-Jul-04 05:15 293 10.6
2020-Jul-04 05:10 293 10.0
2020-Jul-04 05:05 293 10.0
2020-Jul-04 05:00 293 10.0